TimeCST,TemperatureF,Dew PointF,Humidity,Sea Level PressureIn,VisibilityMPH,Wind Direction,Wind SpeedMPH,Gust SpeedMPH,PrecipitationIn,Events,Conditions,WindDirDegrees,DateUTC
12:53 AM,26.1,25.0,96,30.35,3.0,Calm,Calm,-,N/A,,Clear,0,2013-01-27 06:53:00
1:53 AM,26.1,24.1,92,30.34,3.0,East,3.5,-,N/A,,Clear,80,2013-01-27 07:53:00
2:10 AM,26.6,24.8,93,30.31,2.5,Calm,Calm,-,N/A,,Partly Cloudy,0,2013-01-27 08:10:00
2:24 AM,24.8,23.0,93,30.30,2.0,NE,4.6,-,N/A,,Mostly Cloudy,50,2013-01-27 08:24:00
2:50 AM,26.6,24.8,93,30.31,2.5,Calm,Calm,-,N/A,,Scattered Clouds,0,2013-01-27 08:50:00
2:53 AM,25.0,24.1,96,30.34,2.5,ESE,3.5,-,N/A,,Partly Cloudy,110,2013-01-27 08:53:00
3:08 AM,26.6,24.8,93,30.30,3.0,Calm,Calm,-,N/A,,Clear,0,2013-01-27 09:08:00
3:53 AM,26.1,24.1,92,30.34,5.0,Calm,Calm,-,N/A,,Clear,0,2013-01-27 09:53:00
4:53 AM,28.0,25.0,88,30.34,7.0,SE,3.5,-,N/A,,Clear,130,2013-01-27 10:53:00
5:53 AM,28.0,25.0,88,30.35,7.0,East,3.5,-,N/A,,Clear,90,2013-01-27 11:53:00
6:53 AM,26.1,24.1,92,30.37,3.0,Calm,Calm,-,N/A,,Clear,0,2013-01-27 12:53:00
7:53 AM,30.9,28.0,89,30.38,5.0,SE,4.6,-,N/A,,Overcast,140,2013-01-27 13:53:00
8:53 AM,34.0,28.9,82,30.40,9.0,SE,5.8,-,N/A,,Overcast,140,2013-01-27 14:53:00
9:53 AM,39.9,30.9,70,30.40,10.0,Variable,5.8,-,N/A,,Scattered Clouds,0,2013-01-27 15:53:00
10:53 AM,43.0,30.0,60,30.39,10.0,SSE,4.6,-,N/A,,Clear,150,2013-01-27 16:53:00
11:53 AM,46.9,30.0,52,30.37,10.0,Variable,6.9,-,N/A,,Overcast,0,2013-01-27 17:53:00
12:53 PM,46.9,28.9,50,30.35,10.0,Variable,6.9,18.4,N/A,,Overcast,0,2013-01-27 18:53:00
1:53 PM,46.9,30.0,52,30.33,10.0,South,8.1,-,N/A,,Overcast,180,2013-01-27 19:53:00
2:53 PM,45.0,30.0,56,30.35,10.0,South,9.2,17.3,N/A,,Overcast,190,2013-01-27 20:53:00
3:13 PM,44.6,30.2,57,30.32,10.0,Variable,6.9,-,N/A,,Overcast,0,2013-01-27 21:13:00
3:53 PM,45.0,30.9,58,30.35,10.0,South,5.8,-,N/A,,Overcast,170,2013-01-27 21:53:00
4:53 PM,45.0,32.0,60,30.34,10.0,SSE,8.1,-,N/A,,Overcast,160,2013-01-27 22:53:00
6:28 PM,44.6,33.8,66,30.31,10.0,SSE,6.9,-,N/A,,Overcast,160,2013-01-28 00:28:00
6:53 PM,44.1,34.0,68,30.35,10.0,South,10.4,-,N/A,,Overcast,170,2013-01-28 00:53:00
7:53 PM,44.1,34.0,68,30.32,10.0,SSE,9.2,17.3,N/A,,Overcast,160,2013-01-28 01:53:00
8:25 PM,42.8,35.6,76,30.29,8.0,South,6.9,17.3,0.00,Rain,Light Rain,170,2013-01-28 02:25:00
8:53 PM,42.1,36.0,79,30.32,9.0,South,8.1,-,0.02,Rain,Light Rain,170,2013-01-28 02:53:00
9:53 PM,44.1,33.1,65,30.30,10.0,South,8.1,-,0.00,,Clear,170,2013-01-28 03:53:00
10:53 PM,45.0,32.0,60,30.30,10.0,South,10.4,16.1,N/A,,Partly Cloudy,180,2013-01-28 04:53:00
11:53 PM,44.1,30.0,58,30.30,10.0,South,10.4,21.9,N/A,,Partly Cloudy,180,2013-01-28 05:53:00